GW7173 Weather Reports


time (UTC)temp
C
wind
direction
speed
KPH
gust
KPH
rain 1hr
cm
rain 24hr
cm
rain mn
cm
humidity
%
barometer
mb
20260507165934 15 356 3.2 9.7 0.00 0.00 0.00 52 1015.0
20260507165430 15 105 4.8 11.3 0.00 0.00 0.00 48 1015.2
20260507164926 15 58 8.0 11.3 0.00 0.00 0.00 45 1015.3
20260507164423 15 40 4.8 12.9 0.00 0.00 0.00 52 1015.6
20260507163920 15 356 6.4 17.7 0.00 0.00 0.00 40 1015.2
20260507163418 15 39 12.9 20.9 0.00 0.00 0.00 40 1015.2
20260507162914 14 330 4.8 17.7 0.00 0.00 0.00 43 1015.0
20260507162409 14 41 6.4 14.5 0.00 0.00 0.00 43 1015.2
20260507161907 14 339 12.9 17.7 0.00 0.00 0.00 46 1015.1
20260507161403 14 37 4.8 14.5 0.00 0.00 0.00 47 1015.4
20260507160900 14 42 9.7 14.5 0.00 0.00 0.00 44 1015.3
20260507160355 14 336 6.4 14.5 0.00 0.00 0.00 43 1015.3
20260507155852 13 356 8.0 12.9 0.00 0.00 0.00 51 1015.1
20260507155348 14 348 14.5 17.7 0.00 0.00 0.00 44 1015.5
20260507154845 14 344 4.8 9.7 0.00 0.00 0.00 43 1015.4
20260507154342 14 105 4.8 6.4 0.00 0.00 0.00 51 1015.4
20260507153839 14 32 3.2 4.8 0.00 0.00 0.00 46 1015.5
20260507153336 14 27 9.7 12.9 0.00 0.00 0.00 43 1015.5
20260507152832 13 91 3.2 14.5 0.00 0.00 0.00 53 1015.1
20260507152328 14 136 4.8 9.7 0.00 0.00 0.00 44 1015.4
20260507151825 13 97 8.0 12.9 0.00 0.00 0.00 46 1015.4
20260507151321 13 340 6.4 12.9 0.00 0.00 0.00 43 1014.9
20260507150818 13 12 9.7 11.3 0.00 0.00 0.00 45 1015.2
20260507150315 13 28 3.2 11.3 0.00 0.00 0.00 46 1015.2
20260507145811 14 38 9.7 11.3 0.00 0.00 0.00 44 1015.1
20260507145308 13 97 3.2 4.8 0.00 0.00 0.00 46 1015.2
20260507144805 13 68 6.4 12.9 0.00 0.00 0.00 46 1015.2
20260507144302 13 94 4.8 6.4 0.00 0.00 0.00 44 1015.2
20260507143758 13 73 8.0 9.7 0.00 0.00 0.00 50 1014.9
20260507143256 13 92 3.2 6.4 0.00 0.00 0.00 51 1015.2
20260507142751 13 328 3.2 6.4 0.00 0.00 0.00 47 1015.1
20260507142248 13 77 9.7 11.3 0.00 0.00 0.00 50 1015.3
20260507141744 13 19 3.2 11.3 0.00 0.00 0.00 49 1015.0
20260507141242 12 52 4.8 6.4 0.00 0.00 0.00 49 1015.1
20260507140738 12 100 8.0 11.3 0.00 0.00 0.00 51 1015.1
20260507140236 12 80 6.4 6.4 0.00 0.00 0.00 54 1015.3
20260507135732 12 63 4.8 4.8 0.00 0.00 0.00 51 1015.2
20260507135230 12 131 8.0 11.3 0.00 0.00 0.00 53 1015.3
20260507134726 11 110 9.7 14.5 0.00 0.00 0.00 50 1015.3
20260507134222 11 93 14.5 16.1 0.00 0.00 0.00 49 1015.3
20260507133718 12 104 6.4 12.9 0.00 0.00 0.00 52 1015.0
20260507133215 11 113 6.4 11.3 0.00 0.00 0.00 55 1015.3
20260507132713 11 115 9.7 12.9 0.00 0.00 0.00 58 1015.4
20260507132209 11 105 3.2 14.5 0.00 0.00 0.00 59 1015.1
20260507131706 11 113 6.4 14.5 0.00 0.00 0.00 57 1015.2
20260507131203 11 120 8.0 11.3 0.00 0.00 0.00 62 1015.3
20260507130700 11 103 8.0 14.5 0.00 0.00 0.00 60 1015.3
20260507130157 11 90 9.7 11.3 0.00 0.00 0.00 60 1015.4
20260507125656 11 91 3.2 9.7 0.00 0.00 0.00 64 1015.2
20260507125153 10 96 4.8 4.8 0.00 0.00 0.00 65 1015.3
20260507124649 10 116 4.8 9.7 0.00 0.00 0.00 64 1015.2
20260507124147 10 128 4.8 6.4 0.00 0.00 0.00 64 1015.2
20260507123645 10 102 4.8 9.7 0.00 0.00 0.00 65 1015.4
20260507123142 10 96 6.4 6.4 0.00 0.00 0.00 63 1015.6
20260507122637 10 112 3.2 6.4 0.00 0.00 0.00 68 1015.2
20260507122133 10 100 4.8 9.7 0.00 0.00 0.00 68 1015.3
20260507121629 10 70 6.4 9.7 0.00 0.00 0.00 68 1015.5
20260507121125 9 50 0.0 3.2 0.00 0.00 0.00 71 1015.5
20260507120622 9 109 1.6 4.8 0.00 0.00 0.00 67 1015.6
20260507120118 10 66 3.2 4.8 0.00 0.00 0.00 68 1015.3
20260507115615 9 88 1.6 3.2 0.00 0.00 0.00 70 1015.2
20260507115111 9 36 0.0 1.6 0.00 0.00 0.00 70 1015.3
20260507114607 9 72 3.2 3.2 0.00 0.00 0.00 69 1015.3
20260507114104 9 28 0.0 4.8 0.00 0.00 0.00 71 1015.1
20260507113601 8 102 0.0 3.2 0.00 0.00 0.00 74 1015.3
20260507113058 8 18 0.0 1.6 0.00 0.00 0.00 74 1015.1
20260507112556 8 54 0.0 4.8 0.00 0.00 0.00 74 1015.2
20260507112053 8 45 0.0 1.6 0.00 0.00 0.00 75 1015.2
20260507111550 7 44 0.0 1.6 0.00 0.00 0.00 77 1014.8
20260507111046 7 42 0.0 0.0 0.00 0.00 0.00 79 1014.9
20260507110543 7 43 0.0 0.0 0.00 0.00 0.00 80 1014.7
20260507110039 7 44 0.0 0.0 0.00 0.00 0.00 82 1014.8
20260507105536 6 44 0.0 0.0 0.00 0.00 0.00 83 1014.8
20260507105032 6 45 1.6 1.6 0.00 0.00 0.00 84 1014.7
20260507104530 5 58 1.6 3.2 0.00 0.00 0.00 87 1014.6
20260507104026 5 77 0.0 1.6 0.00 0.00 0.00 88 1014.7
20260507103522 5 78 0.0 1.6 0.00 0.00 0.00 88 1014.4
20260507103019 5 83 0.0 0.0 0.00 0.00 0.00 88 1014.4
20260507102516 5 84 0.0 0.0 0.00 0.00 0.00 88 1014.4
20260507102012 5 83 0.0 0.0 0.00 0.00 0.00 88 1014.2
20260507101507 6 83 0.0 0.0 0.00 0.00 0.00 87 1014.3
20260507101004 6 84 0.0 1.6 0.00 0.00 0.00 88 1014.2
20260507100501 5 86 0.0 0.0 0.00 0.00 0.00 87 1014.5
20260507095959 6 89 0.0 0.0 0.00 0.00 0.00 86 1014.3
20260507095457 6 89 0.0 0.0 0.00 0.00 0.00 87 1014.2
20260507094953 6 89 0.0 0.0 0.00 0.00 0.00 86 1014.3
20260507094449 6 89 0.0 0.0 0.00 0.00 0.00 85 1014.5
20260507093947 6 89 1.6 1.6 0.00 0.00 0.00 85 1014.5
20260507093444 6 90 1.6 1.6 0.00 0.00 0.00 86 1014.5
20260507092943 6 90 1.6 1.6 0.00 0.00 0.00 87 1014.4
20260507092438 6 91 1.6 1.6 0.00 0.00 0.00 86 1014.3
20260507091936 6 91 0.0 0.0 0.00 0.00 0.00 84 1014.2
20260507091432 6 91 0.0 0.0 0.00 0.00 0.00 84 1014.4
20260507090928 6 91 0.0 0.0 0.00 0.00 0.00 84 1014.5
20260507090424 7 91 0.0 0.0 0.00 0.00 0.00 82 1014.4
20260507085921 7 92 0.0 0.0 0.00 0.00 0.00 81 1014.1
20260507085418 7 91 0.0 0.0 0.00 0.00 0.00 81 1014.0
20260507084915 7 92 1.6 1.6 0.00 0.00 0.00 82 1013.9
20260507084412 7 92 0.0 0.0 0.00 0.00 0.00 82 1014.1
20260507083909 7 92 0.0 0.0 0.00 0.00 0.00 81 1014.1
20260507083405 7 92 0.0 0.0 0.00 0.00 0.00 80 1014.4
20260507082901 7 91 0.0 0.0 0.00 0.00 0.00 80 1014.0
20260507082357 7 91 0.0 0.0 0.00 0.00 0.00 80 1014.0
20260507081855 7 68 0.0 0.0 0.00 0.00 0.00 79 1013.9
20260507081350 7 42 0.0 0.0 0.00 0.00 0.00 79 1014.0
20260507080848 7 61 0.0 0.0 0.00 0.00 0.00 80 1014.0
20260507080344 8 61 0.0 1.6 0.00 0.00 0.00 80 1013.9
20260507075839 8 61 0.0 1.6 0.00 0.00 0.00 79 1013.9
20260507075335 8 63 0.0 0.0 0.00 0.00 0.00 79 1013.7
20260507074832 8 63 0.0 0.0 0.00 0.00 0.00 78 1013.9
20260507074329 8 62 0.0 0.0 0.00 0.00 0.00 78 1013.8
20260507073826 8 62 0.0 0.0 0.00 0.00 0.00 78 1013.9
20260507073323 8 62 0.0 1.6 0.00 0.00 0.00 78 1013.9
20260507072820 8 62 0.0 1.6 0.00 0.00 0.00 78 1014.1
20260507072318 8 62 0.0 0.0 0.00 0.00 0.00 77 1013.9
20260507071815 8 62 0.0 0.0 0.00 0.00 0.00 77 1014.1
20260507071312 9 64 1.6 1.6 0.00 0.00 0.00 78 1013.8
20260507070808 9 65 0.0 0.0 0.00 0.00 0.00 77 1014.0
20260507070306 9 66 1.6 1.6 0.00 0.00 0.00 78 1013.9
20260507065802 8 66 1.6 1.6 0.00 0.00 0.00 77 1014.0
20260507065259 8 68 0.0 0.0 0.00 0.00 0.00 78 1013.9
20260507064756 8 68 1.6 1.6 0.00 0.00 0.00 77 1013.9
20260507064255 8 69 1.6 1.6 0.00 0.00 0.00 78 1014.3
20260507063752 9 71 1.6 1.6 0.00 0.00 0.00 77 1013.9
20260507063249 9 102 0.0 1.6 0.00 0.00 0.00 77 1014.0
20260507062745 9 45 1.6 1.6 0.00 0.00 0.00 77 1014.0
20260507062242 9 44 1.6 3.2 0.00 0.00 0.00 76 1014.0
20260507061741 9 61 3.2 3.2 0.00 0.00 0.00 76 1014.2
20260507061238 8 69 1.6 1.6 0.00 0.00 0.00 78 1014.3
20260507060737 9 75 1.6 1.6 0.00 0.00 0.00 79 1014.5
20260507060233 9 77 0.0 1.6 0.00 0.00 0.00 77 1014.6
20260507055729 9 78 0.0 0.0 0.00 0.00 0.00 76 1014.3
20260507055225 9 78 1.6 1.6 0.00 0.00 0.00 77 1014.4
20260507054721 9 78 1.6 1.6 0.00 0.00 0.00 78 1014.4
20260507054218 9 78 0.0 0.0 0.00 0.00 0.00 77 1014.0
20260507053716 9 84 0.0 0.0 0.00 0.00 0.00 77 1013.9
20260507053213 9 84 0.0 0.0 0.00 0.00 0.00 77 1014.2
20260507052712 10 84 0.0 0.0 0.00 0.00 0.00 77 1014.1
20260507052207 10 84 0.0 0.0 0.00 0.00 0.00 77 1014.1
20260507051706 10 84 1.6 1.6 0.00 0.00 0.00 78 1014.0
20260507051202 10 77 0.0 0.0 0.00 0.00 0.00 78 1014.2
20260507050659 9 77 0.0 0.0 0.00 0.00 0.00 78 1014.3
20260507050156 9 76 0.0 0.0 0.00 0.00 0.00 79 1014.4
20260507045652 9 77 0.0 0.0 0.00 0.00 0.00 82 1014.2
20260507045149 9 77 0.0 0.0 0.00 0.00 0.00 86 1014.1
20260507044646 9 77 1.6 1.6 0.00 0.00 0.00 82 1014.0
20260507044143 9 76 0.0 0.0 0.00 0.00 0.00 80 1014.3
20260507043639 9 76 0.0 0.0 0.00 0.00 0.00 82 1014.2
20260507043136 10 76 0.0 0.0 0.00 0.00 0.00 80 1014.5
20260507042632 10 76 0.0 1.6 0.00 0.00 0.00 79 1014.5
20260507042127 10 76 0.0 0.0 0.00 0.00 0.00 78 1014.4
20260507041624 10 77 0.0 0.0 0.00 0.00 0.00 78 1014.6
20260507041121 10 76 0.0 0.0 0.00 0.00 0.00 77 1014.6
20260507040618 10 76 0.0 0.0 0.00 0.00 0.00 79 1014.5
20260507040114 10 76 0.0 0.0 0.00 0.00 0.00 76 1014.8
20260507035610 10 77 0.0 0.0 0.00 1.65 1.65 75 1014.9
20260507035107 10 76 0.0 0.0 0.00 1.65 1.65 75 1014.8
20260507034604 10 76 0.0 0.0 0.00 1.65 1.65 76 1014.9
20260507034102 10 76 0.0 0.0 0.00 1.65 1.65 76 1014.8
20260507033600 11 76 0.0 0.0 0.00 1.65 1.65 74 1014.7
20260507033056 11 76 0.0 0.0 0.00 1.65 1.65 74 1014.8
20260507032554 11 76 0.0 0.0 0.00 1.65 1.65 73 1014.6
20260507032050 11 77 0.0 0.0 0.00 1.65 1.65 73 1014.7
20260507031546 11 77 0.0 0.0 0.00 1.65 1.65 72 1014.7
20260507031043 11 77 0.0 0.0 0.00 1.65 1.65 73 1014.7
20260507030540 11 77 0.0 0.0 0.00 1.65 1.65 72 1014.6
20260507030038 11 77 0.0 0.0 0.00 1.65 1.65 72 1014.6
20260507025534 11 77 0.0 0.0 0.00 1.65 1.65 71 1014.5
20260507025032 11 77 1.6 1.6 0.00 1.65 1.65 71 1014.6
20260507024530 11 77 0.0 0.0 0.00 1.65 1.65 71 1014.2
20260507024026 12 77 0.0 1.6 0.00 1.65 1.65 70 1014.0
20260507023522 12 77 0.0 0.0 0.00 1.65 1.65 68 1014.1
20260507023020 12 78 1.6 1.6 0.00 1.65 1.65 68 1014.0
20260507022516 12 80 0.0 1.6 0.00 1.65 1.65 68 1014.1
20260507022012 12 95 1.6 1.6 0.00 1.65 1.65 67 1013.8
20260507021508 12 88 1.6 3.2 0.00 1.65 1.65 65 1013.8
20260507021005 12 10 0.0 3.2 0.00 1.65 1.65 65 1013.7
20260507020502 12 16 0.0 3.2 0.00 1.65 1.65 65 1013.6
20260507015959 12 39 1.6 1.6 0.00 1.65 1.65 63 1013.6
20260507015457 12 38 1.6 3.2 0.00 1.65 1.65 63 1013.5
20260507014954 13 358 0.0 1.6 0.00 1.65 1.65 63 1013.6
20260507014450 13 23 1.6 3.2 0.00 1.65 1.65 63 1013.7
20260507013946 13 46 0.0 1.6 0.00 1.65 1.65 64 1013.5
20260507013443 13 48 0.0 0.0 0.00 1.65 1.65 64 1013.6
20260507012941 13 48 3.2 9.7 0.00 1.65 1.65 63 1013.7
20260507012437 13 38 1.6 1.6 0.00 1.65 1.65 63 1013.5
20260507011934 13 37 3.2 3.2 0.00 1.65 1.65 63 1013.8
20260507011432 13 33 0.0 1.6 0.00 1.65 1.65 63 1013.3
20260507010931 13 46 0.0 0.0 0.00 1.65 1.65 64 1013.6
20260507010427 13 46 0.0 1.6 0.00 1.65 1.65 63 1013.8
20260507005924 13 45 0.0 1.6 0.00 1.65 1.65 64 1013.6
20260507005421 13 45 0.0 0.0 0.00 1.65 1.65 65 1013.7
20260507004917 13 45 0.0 0.0 0.00 1.65 1.65 66 1013.5
20260507004414 13 45 1.6 1.6 0.00 1.65 1.65 65 1013.6
20260507003912 13 45 0.0 0.0 0.00 1.65 1.65 63 1013.1
20260507003407 13 45 0.0 0.0 0.00 1.65 1.65 62 1013.5
20260507002902 13 46 0.0 0.0 0.00 1.65 1.65 61 1013.1
20260507002358 13 46 0.0 1.6 0.00 1.65 1.65 61 1013.0
20260507001856 13 46 0.0 1.6 0.00 1.65 1.65 60 1013.0
20260507001352 13 47 0.0 1.6 0.00 1.65 1.65 61 1013.0
20260507000849 13 49 3.2 4.8 0.00 1.65 1.65 59 1012.9
20260507000344 13 48 3.2 4.8 0.00 1.65 1.65 59 1012.9
20260506235841 13 48 1.6 3.2 0.00 1.65 1.65 61 1012.8
20260506235338 13 49 1.6 4.8 0.00 1.65 1.65 59 1012.9
20260506234834 13 35 1.6 1.6 0.00 1.65 1.65 59 1013.0
20260506234332 13 6 3.2 3.2 0.00 1.65 1.65 60 1013.1
20260506233830 13 345 3.2 3.2 0.00 1.65 1.65 62 1013.2
20260506233325 13 42 1.6 3.2 0.00 1.65 1.65 63 1012.7
20260506232822 13 39 1.6 9.7 0.00 1.65 1.65 61 1012.6
20260506232318 14 8 1.6 3.2 0.00 1.65 1.65 62 1012.8
20260506231815 14 52 0.0 1.6 0.00 1.65 1.65 60 1012.8
20260506231313 14 57 3.2 9.7 0.00 1.65 1.65 60 1012.5
20260506230810 14 41 6.4 11.3 0.00 1.65 1.65 60 1012.9
20260506230306 14 57 4.8 6.4 0.00 1.65 1.65 59 1012.6
20260506225803 14 75 3.2 4.8 0.00 1.65 1.65 60 1012.3
20260506225300 14 69 1.6 9.7 0.00 1.65 1.65 60 1012.3
20260506224756 14 80 8.0 9.7 0.00 1.65 1.65 60 1011.7
20260506224254 15 5 1.6 9.7 0.00 1.65 1.65 59 1012.2
20260506223750 15 41 0.0 11.3 0.00 1.65 1.65 61 1012.2
20260506223245 15 40 1.6 3.2 0.00 1.65 1.65 60 1012.5
20260506222743 15 91 1.6 3.2 0.00 1.65 1.65 60 1012.1
20260506222238 15 38 1.6 3.2 0.00 1.65 1.65 60 1012.1
20260506221737 15 76 0.0 3.2 0.00 1.65 1.65 63 1011.7
20260506221234 15 24 3.2 4.8 0.00 1.65 1.65 61 1012.1
20260506220731 15 88 0.0 1.6 0.00 1.65 1.65 65 1011.8
20260506220226 15 29 0.0 4.8 0.00 1.65 1.65 62 1011.7
20260506215723 15 51 1.6 3.2 0.00 1.65 1.65 62 1011.9
20260506215218 15 67 0.0 1.6 0.00 1.65 1.65 63 1011.8
20260506214715 15 31 1.6 3.2 0.00 1.65 1.65 64 1012.0
20260506214212 15 3 0.0 4.8 0.00 1.65 1.65 63 1012.4
20260506213710 15 42 3.2 4.8 0.00 1.65 1.65 61 1012.5
20260506213208 15 43 6.4 6.4 0.00 1.65 1.65 62 1012.4
20260506212705 15 5 4.8 6.4 0.00 1.65 1.65 63 1012.5
20260506212200 15 349 3.2 4.8 0.00 1.65 1.65 62 1012.4
20260506211656 15 350 1.6 3.2 0.00 1.65 1.65 64 1012.3
20260506211152 15 328 6.4 9.7 0.00 1.65 1.65 63 1012.3
20260506210649 15 332 8.0 9.7 0.00 1.65 1.65 61 1012.3
20260506210146 15 22 1.6 4.8 0.00 1.65 1.65 61 1012.2
20260506205644 15 358 3.2 4.8 0.00 1.65 1.65 60 1012.1
20260506205143 16 41 4.8 6.4 0.00 1.65 1.65 62 1012.3
20260506204642 15 13 1.6 1.6 0.00 1.65 1.65 67 1012.3
20260506204138 15 34 1.6 3.2 0.00 1.65 1.65 61 1012.4
20260506203637 15 34 1.6 3.2 0.00 1.65 1.65 60 1012.1
20260506203133 15 37 4.8 6.4 0.00 1.65 1.65 60 1012.0
20260506202632 16 39 4.8 4.8 0.00 1.65 1.65 60 1012.1
20260506202127 16 69 4.8 4.8 0.00 1.65 1.65 64 1012.1
20260506201625 16 322 3.2 6.4 0.00 1.65 1.65 63 1011.9
20260506201121 16 295 3.2 4.8 0.00 1.65 1.65 63 1012.2
20260506200617 16 6 3.2 4.8 0.00 1.65 1.65 63 1012.5
20260506200114 16 62 3.2 3.2 0.00 1.65 1.65 63 1012.5
20260506195611 16 48 6.4 9.7 0.00 1.65 1.65 61 1012.4
20260506195107 16 352 4.8 6.4 0.00 1.65 1.65 63 1012.7
20260506194605 16 2 4.8 6.4 0.00 1.65 1.65 62 1012.3
20260506194101 16 80 1.6 9.7 0.00 1.65 1.65 64 1013.0
20260506193559 16 126 3.2 3.2 0.00 1.65 1.65 61 1012.6
20260506193056 16 61 6.4 11.3 0.00 1.65 1.65 61 1012.5
20260506192553 16 3 0.0 3.2 0.00 1.65 1.65 64 1012.5
20260506192049 16 4 6.4 6.4 0.00 1.65 1.65 64 1012.5
20260506191545 16 52 3.2 3.2 0.00 1.65 1.65 68 1012.3
20260506191041 15 104 1.6 3.2 0.00 1.65 1.65 64 1012.0
20260506190538 16 46 6.4 11.3 0.00 1.65 1.65 65 1012.2
20260506190035 16 30 6.4 9.7 0.00 1.65 1.65 63 1012.2
20260506185533 16 9 8.0 14.5 0.00 1.65 1.65 66 1012.3
20260506185029 16 350 4.8 6.4 0.00 1.65 1.65 63 1012.6
20260506184527 16 106 0.0 4.8 0.00 1.65 1.65 63 1012.4
20260506184024 16 28 1.6 6.4 0.00 1.65 1.65 61 1012.3
20260506183519 16 340 8.0 9.7 0.00 1.65 1.65 65 1012.2
20260506183016 16 345 6.4 6.4 0.00 1.65 1.65 65 1011.9
20260506182514 16 102 4.8 9.7 0.00 1.65 1.65 67 1012.1
20260506182011 16 35 1.6 9.7 0.00 1.65 1.65 64 1012.2
20260506181509 16 39 3.2 9.7 0.00 1.65 1.65 65 1012.3
20260506181005 15 43 8.0 11.3 0.00 1.65 1.65 65 1012.4
20260506180502 15 46 1.6 4.8 0.00 1.65 1.65 63 1012.3
20260506175958 15 335 3.2 9.7 0.00 1.65 1.65 68 1012.1
20260506175455 15 35 6.4 9.7 0.00 1.65 1.65 66 1011.9
20260506174951 16 130 3.2 6.4 0.00 1.65 1.65 64 1012.1
20260506174450 15 108 4.8 6.4 0.00 1.65 1.65 70 1012.0
20260506173946 15 129 4.8 6.4 0.00 1.65 1.65 73 1012.2
20260506173444 15 357 11.3 16.1 0.00 1.65 1.65 70 1012.3
20260506172940 16 73 9.7 11.3 0.00 1.65 1.65 67 1012.0
20260506172438 15 242 1.6 3.2 0.00 1.65 1.65 69 1012.2
20260506171934 15 39 8.0 11.3 0.00 1.65 1.65 65 1012.3
20260506171432 15 135 6.4 11.3 0.00 1.65 1.65 69 1012.4
20260506170929 15 109 1.6 6.4 0.00 1.65 1.65 76 1012.5